Regional Weather Roundup
Issued by NWS Albany, NY

Home | Current Version | Previous Version | Text Only | Print | Product List | Glossary On
Versions: 1 2 3 4 5 6 7 8 9 10 11 12 13 14 15 16 17 18 19 20 21 22 23 24 25 26 27 28 29 30 31 32 33 34 35 36 37 38 39 40 41 42 43 44 45 46 47 48 49 50
889
ASUS41 KALY 250910
RWRALY

NEW YORK STATE HOURLY WEATHER ROUNDUP
NATIONAL WEATHER SERVICE ALBANY NY
500 AM EDT SUN SEP 25 2016

NOTE: "FAIR" INDICATES FEW OR NO CLOUDS BELOW 12,000 FEET WITH NO
SIGNIFICANT WEATHER AND/OR NO OBSTRUCTIONS TO VISIBILITY.

NYZ032-033-038>043-046>054-057>066-NYZ062>081-082-084-251000-
EAST


CITY           SKY/WX    TMP DP  RH WIND       PRES   REMARKS
ALBANY         PTCLDY    42  39  89 CALM      30.20R
GLENS FALLS    CLEAR     36  34  92 CALM      30.19R FOG
POUGHKEEPSIE   CLEAR     38  37  97 CALM      30.17R
NEWBURGH       CLEAR     43  41  93 W6        30.19R
MONTGOMERY     CLEAR     44  40  85 CALM      30.18R
WHITE PLAINS   CLEAR     47  41  80 CALM      30.15S
ISLIP          CLEAR     54  41  61 CALM      30.15R
NEW YORK CITY  CLEAR     60  43  53 N6        30.16R
CENTRAL PARK   CLEAR     55  42  61 N6        30.19R
$$

NYZ005>009-017-018-044>046-055-056-251000-
CENTRAL


CITY           SKY/WX    TMP DP  RH WIND       PRES   REMARKS
FULTON         CLEAR     41  35  79 NE3       30.24R
SYRACUSE       PTCLDY    42  41  96 CALM      30.22S
ROME           CLEAR     38  37  97 CALM      30.24R
ELMIRA         MOCLDY    40  37  89 W5        30.23R
BINGHAMTON     CLEAR     44  38  79 N7        30.20R
MONTICELLO     CLEAR     37  36  93 NW3       30.20R
$$

NYZ026>034-041>043-087-251000-
NORTH


CITY           SKY/WX    TMP DP  RH WIND       PRES   REMARKS
WATERTOWN      CLEAR     32  31  96 CALM      30.25R
FORT DRUM      NOT AVBL
OGDENSBURG     FAIR      33  33  96 CALM      30.25R
MASSENA        CLEAR     37  34  89 CALM      30.24S
SARANAC LAKE   CLEAR     26  24  92 CALM      30.19R
PLATTSBURGH    CLEAR     43  36  76 W6        30.18S
$$

NYZ001>004-010>016-019>021-085-251000-
WEST


CITY           SKY/WX    TMP DP  RH WIND       PRES   REMARKS
NIAGARA FALLS  CLEAR     49  41  74 NE3       30.24R
BUFFALO        CLEAR     45  40  82 CALM      30.24S
DUNKIRK        CLEAR     42  39  89 S3        30.23S
JAMESTOWN      CLEAR     45  36  70 CALM      30.23S
WELLSVILLE     CLOUDY    40  38  93 CALM      30.24S
ROCHESTER      CLEAR     44  42  93 CALM      30.24S
PENN YAN       CLEAR     41  36  82 CALM      30.24R
$$

             KEY
       WCI = WIND CHILL INDEX
       VSB = VISIBILITY
       HX  = HEAT INDEX
$$




USA.gov is the U.S. government's official web portal to all federal, state and local government web resources and services.